Regional Weather Roundup
Issued by NWS

Home | Current Version | Previous Version | Graphics & Text | Print | Product List | Glossary On
Versions: 1 2 3 4 5 6 7 8 9 10 11 12 13 14 15 16 17 18 19 20 21 22 23 24 25 26 27 28 29 30 31 32 33 34 35 36 37 38 39 40 41 42 43 44 45 46 47 48 49 50
212
ASUS43 KOAX 251702
RWRNE

WEATHER ROUNDUP FOR NEBRASKA
NATIONAL WEATHER SERVICE OMAHA NE
1200 PM CDT SAT MAR 25 2017

NOTES: SATELLITE DATA IS BEING USED TO AUGMENT CLOUD COVER ABOVE
       12000 FEET.
       "FAIR" INDICATES FEW OR NO CLOUDS BELOW 12,000 FEET WITH NO
       SIGNIFICANT WEATHER AND/OR OBSTRUCTIONS TO VISIBILITY.

  * THESE STATIONS DO NOT REPORT WEATHER SUCH AS RAIN...SNOW OR FOG.

NEZ001>004-019>022-054>056-251800-
NEBRASKA PANHANDLE

CITY           SKY/WX    TMP DP  RH WIND       PRES   REMARKS
SCOTTSBLUFF    MOSUNNY   56  34  43 S8        29.97F
ALLIANCE       CLOUDY    58  29  33 S16       29.98F
CHADRON        MOSUNNY   61  32  33 SW12      29.93F
KIMBALL        CLOUDY    53  35  50 SW10      30.02F
SIDNEY         SUNNY     54  30  40 S12       30.02F
$$

NEZ057>060-069>072-079>082-251800-
SOUTHWEST NEBRASKA

CITY           SKY/WX    TMP DP  RH WIND       PRES   REMARKS
NORTH PLATTE   SUNNY     50  35  56 W5        30.03F
IMPERIAL       SUNNY     51  32  48 N6        30.05F
LEXINGTON      CLOUDY    42  38  86 N8        30.04S
MCCOOK         SUNNY     52  39  61 N10       30.03F
OGALLALA       SUNNY     52  30  43 CALM      30.05F
$$

NEZ005>010-023>029-035>040-094-251800-
NORTH CENTRAL NEBRASKA

CITY           SKY/WX    TMP DP  RH WIND       PRES   REMARKS
VALENTINE      SUNNY     47  28  47 CALM      30.03F
AINSWORTH      MOSUNNY   37  37 100 CALM      30.03F
BROKEN BOW     CLOUDY    39  37  92 N10       30.03F WCI  32
O`NEILL        FOG       35  35 100 N5        30.07S VSB 1/2 WCI  31
ORD            CLOUDY    37  35  92 NE12      30.04F FOG     WCI  29
THEDFORD       SUNNY     51  30  45 E5        30.02F
$$

NEZ041-046>049-061>064-073>077-083>087-251800-
SOUTH CENTRAL NEBRASKA

CITY           SKY/WX    TMP DP  RH WIND       PRES   REMARKS
GRAND ISLAND   CLOUDY    36  36 100 N14       30.03S FOG     WCI  27
AURORA         CLOUDY    36  36 100 N15       30.01S FOG     WCI  27
HASTINGS       CLOUDY    37  35  92 N15       30.02F WCI  28
HEBRON         CLOUDY    40  37  89 N17G23    30.00R WCI  31
HOLDREGE       CLOUDY    39  37  92 N15       30.02S WCI  31
KEARNEY *      CLOUDY    37  34  87 N16       30.03S WCI  28
YORK           CLOUDY    37  37 100 N20G28    30.00S FOG     WCI  27
$$

NEZ011>018-030>034-042>045-251800-
NORTHEAST NEBRASKA

CITY           SKY/WX    TMP DP  RH WIND       PRES   REMARKS
NORFOLK        CLOUDY    37  35  92 N14G25    30.02F WCI  28
ALBION         CLOUDY    39  36  89 N12       30.03S WCI  32
BLAIR          CLOUDY    40  39  94 N17       29.97F WCI  32
FREMONT        DRIZZLE   40  39  97 N8G17     30.01S WCI  34
TEKAMAH        LGT RAIN  41  37  86 N17       30.01S
WAYNE          CLOUDY    38  37  99 N13       30.04S FOG     WCI  30
$$

NEZ050>053-065>068-078-088>093-251800-
SOUTHEAST NEBRASKA

CITY           SKY/WX    TMP DP  RH WIND       PRES   REMARKS
LINCOLN        CLOUDY    41  38  89 N17       30.00R
OMAHA EPPLEY   CLOUDY    43  37  79 N18       29.97F
BEATRICE       LGT RAIN  42  42  97 NE15G24   29.95F
FALLS CITY     LGT RAIN  43  41  93 N14       29.91S
NEBRASKA CITY  DRIZZLE   41  41 100 NE15      29.94S
PLATTSMOUTH    CLOUDY    42  38  86 N12G18    29.95F
$$

NEZ044-045-051>053-067-251800-
OMAHA AREA

CITY           SKY/WX    TMP DP  RH WIND       PRES   REMARKS
OMAHA EPPLEY   CLOUDY    43  37  79 N18       29.97F
BLAIR          CLOUDY    40  39  94 N17       29.97F WCI  32
FREMONT        DRIZZLE   40  39  97 N8G17     30.01S WCI  34
MILLARD        DRIZZLE   43  41  94 N8        29.98F
OFFUTT AFB     CLOUDY    42  38  86 N12       29.96F
PLATTSMOUTH    CLOUDY    42  38  86 N12G18    29.95F
WAHOO          LGT RAIN  40  38  92 N13G20    30.00S WCI  33
$$




USA.gov is the U.S. government's official web portal to all federal, state and local government web resources and services.